Regional Weather Roundup
Issued by NWS

Home | Current Version | Previous Version | Graphics & Text | Print | Product List | Glossary On
Versions: 1 2 3 4 5 6 7 8 9 10 11 12 13 14 15 16 17 18 19 20 21 22 23 24 25 26 27 28 29 30 31 32 33 34 35 36 37 38 39 40 41 42 43 44 45 46 47 48 49 50
000
ASUS44 KMEG 131900
RWRTN
TENNESSEE HOURLY STATE WEATHER ROUNDUP
NATIONAL WEATHER SERVICE MEMPHIS TN
100 PM CST WED DEC 13 2017

TNZ002-004-019-021-049-052-054-088>092-132000-
WEST TENNESSEE

CITY           SKY/WX    TMP DP  RH WIND       PRES   REMARKS
MEMPHIS INTL   SUNNY     54  26  34 S14G24    29.84F
NWS MEMPHIS      N/A     53 N/A N/A MISG        N/A
JACKSON        SUNNY     53  21  28 S17G24    29.80F
DYERSBURG      SUNNY     54  22  28 SW13G23   29.77F
$$

TNZ008-025-027-028-033-062-065-066-132000-
NORTH MIDDLE TENNESSEE

CITY           SKY/WX    TMP DP  RH WIND       PRES   REMARKS
NASHVILLE      MOSUNNY   48  15  26 S20G26    29.80F
CLARKSVILLE    SUNNY     48  16  27 SW21G30   29.72F
SMYRNA         SUNNY     47  16  29 S17       29.83F
CROSSVILLE     SUNNY     40   7  25 S12G20    29.79F WCI  33
$$

TNZ061-075-076-078-094-096-097-132000-
SOUTH MIDDLE TENNESSEE

CITY           SKY/WX    TMP DP  RH WIND       PRES   REMARKS
WINCHESTER     SUNNY     46  10  23 S9        29.87F
$$

TNZ017-018-042-046-047-132000-
NORTHEAST TENNESSEE

CITY           SKY/WX    TMP DP  RH WIND       PRES   REMARKS
TRI CITIES     MOSUNNY   37   7  28 SW10      29.83F WCI  30
$$

TNZ012-013-036-069-073-074-132000-
CENTRAL EAST TENNESSEE

CITY           SKY/WX    TMP DP  RH WIND       PRES   REMARKS
KNOXVILLE      MOSUNNY   43   8  23 S14       29.84F
OAK RIDGE      SUNNY     41   9  26 SW9G18    29.86F
$$

TNZ083-085-099-132000-
SOUTHEAST TENNESSEE

CITY           SKY/WX    TMP DP  RH WIND       PRES   REMARKS
CHATTANOOGA    SUNNY     45  10  24 S8        29.91F
$$

SKY/WX REPORTED AS FAIR MEANS FEW OR NO CLOUDS BELOW
12 THOUSAND FEET.





USA.gov is the U.S. government's official web portal to all federal, state and local government web resources and services.